Change the Weather History Date:

Tuesday, February 4, 2014

  Actual Average Record
Temperature  
Mean Temperature -6 °F 11 °F  
Max Temperature 2 °F 21 °F 51 °F (1925)
Min Temperature -14 °F 2 °F -35 °F (1886)
Degree Days  
Heating Degree Days 71 54  
Month to date heating degree days 249 217  
Since 1 July heating degree days 5841 5485  
Cooling Degree Days 0 0  
Month to date cooling degree days 0 0  
Year to date cooling degree days 0 0  
Moisture  
Dew Point -13 °F    
Average Humidity 67    
Maximum Humidity 72    
Minimum Humidity 61    
Precipitation  
Precipitation 0.00 in 0.02 in 0.54 in (1908)
Month to date precipitation T 0.07  
Year to date precipitation 0.77 0.77  
Snow  
Snow 0.00 in 0.30 in 3.70 in (1955)
Month to date snowfall T 1.0  
Since 1 July snowfall 26.1 32.0  
Snow Depth 12.00 in    
Sea Level Pressure  
Sea Level Pressure 30.64 in    
Wind  
Wind Speed 6 mph (NNW)    
Max Wind Speed 14 mph    
Max Gust Speed 16 mph    
Visibility 10 miles    
Events      
T = Trace of Precipitation, MM = Missing Value Source: NWS Daily Summary

Daily Weather History Graph

Daily Weather History Graph

Search for Another Location

Airport or City:

Trip Planner

Search our weather history database for the weather conditions in past years. The results will help you decide how hot, cold, wet, or windy it might be!

Date:

Astronomy

Feb. 04, 2014 Rise Set
Actual Time 7:47 AM CST 5:35 PM CST
Civil Twilight 7:15 AM CST 6:07 PM CST
Nautical Twilight 6:39 AM CST 6:43 PM CST
Astronomical Twilight 6:04 AM CST 7:19 PM CST
Moon 10:03 AM CST (2/4) 11:56 PM CST (2/4)
Length of Visible Light 10h 51m
Length of Day
9h 47m
Waxing Crescent, 29% of the Moon is Illuminated
Feb 4
Waxing Crescent
Feb 6
First Quarter
Feb 14
Full
Feb 22
Last Quarter
Mar 1
New

Hourly Weather History & Observations

Time (CST) Temp. Windchill Dew Point Humidity Pressure Visibility Wind Dir Wind Speed Gust Speed Precip Events Conditions
12:53 AM -4.0 °F -17.8 °F -13.0 °F 65% 30.53 in 10.0 mi NW 6.9 mph - 0.01 in   Clear
1:53 AM -6.0 °F -21.5 °F -14.1 °F 68% 30.55 in 10.0 mi WNW 8.1 mph - 0.02 in   Clear
2:53 AM -5.1 °F -23.5 °F -14.1 °F 65% 30.56 in 10.0 mi NW 11.5 mph - 0.01 in   Clear
3:53 AM -8.0 °F -21.0 °F -16.1 °F 68% 30.57 in 10.0 mi NNW 5.8 mph - 0.06 in   Clear
4:53 AM -9.0 °F -20.4 °F -16.1 °F 71% 30.59 in 10.0 mi NNW 4.6 mph - 0.08 in   Clear
5:53 AM -11.9 °F -25.7 °F -18.0 °F 74% 30.60 in 10.0 mi NNW 5.8 mph - 0.02 in   Clear
6:53 AM -13.0 °F -22.7 °F -20.0 °F 71% 30.61 in 10.0 mi North 3.5 mph - 0.07 in   Clear
7:53 AM -11.9 °F - -18.0 °F 74% 30.63 in 10.0 mi Calm Calm - N/A   Clear
8:53 AM -11.9 °F - -18.0 °F 74% 30.65 in 10.0 mi Calm Calm - 0.01 in   Clear
9:53 AM -8.0 °F - -15.0 °F 71% 30.66 in 10.0 mi Calm Calm - N/A   Clear
10:53 AM -4.0 °F - -14.1 °F 62% 30.68 in - Calm Calm - 0.07 in   Unknown
11:53 AM -2.0 °F - -11.9 °F 63% 30.69 in 10.0 mi Calm Calm - N/A   Clear
12:53 PM -0.0 °F -14.2 °F -9.9 °F 63% 30.66 in 10.0 mi NNW 8.1 mph - 0.06 in   Clear
1:53 PM 1.9 °F -14.7 °F -8.0 °F 63% 30.64 in 10.0 mi NNW 11.5 mph - 0.01 in   Clear
2:53 PM 1.9 °F -13.8 °F -8.0 °F 63% 30.63 in 10.0 mi North 10.4 mph - 0.04 in   Clear
3:53 PM 1.9 °F -12.9 °F -9.0 °F 60% 30.66 in 10.0 mi North 9.2 mph - 0.07 in   Clear
4:53 PM -0.0 °F -13.0 °F -9.9 °F 63% 30.67 in 10.0 mi NE 6.9 mph - 0.12 in   Clear
5:53 PM -2.0 °F -10.1 °F -11.9 °F 63% 30.69 in 10.0 mi North 3.5 mph - 0.20 in   Clear
6:53 PM -5.1 °F -13.6 °F -13.0 °F 69% 30.68 in 10.0 mi North 3.5 mph - 0.12 in   Clear
7:53 PM -5.1 °F -13.6 °F -13.0 °F 69% 30.68 in 10.0 mi West 3.5 mph - 0.06 in   Clear
8:53 PM -6.0 °F -18.6 °F -13.0 °F 72% 30.68 in 10.0 mi WSW 5.8 mph - 0.01 in   Clear
9:53 PM -7.1 °F -19.9 °F -14.1 °F 72% 30.68 in 10.0 mi West 5.8 mph - 0.03 in   Clear
10:53 PM -4.0 °F -20.2 °F -11.9 °F 69% 30.67 in 10.0 mi NW 9.2 mph - N/A   Clear
11:53 PM -4.0 °F -19.0 °F -11.9 °F 69% 30.68 in 10.0 mi NNW 8.1 mph - N/A   Partly Cloudy